Regional Weather Roundup
Issued by NWS State College, PA

Home | Current Version | Previous Version | Text Only | Print | Product List | Glossary On
Versions: 1 2 3 4 5 6 7 8 9 10 11 12 13 14 15 16 17 18 19 20 21 22 23 24 25 26 27 28 29 30 31 32 33 34 35 36 37 38 39 40 41 42 43 44 45 46 47 48 49 50
000
ASUS41 KCTP 182210
RWRCTP

REGIONAL WEATHER ROUNDUP
NATIONAL WEATHER SERVICE STATE COLLEGE PA
600 PM EDT FRI APR 18 2014

Note: "fair" indicates few or no clouds below 12,000 feet with no
significant weather and/or obstructions to visibility.

* = STATION THAT DOES NOT REPORT PRECIPITATION /E.G. RAIN...SNOW...ETC/
    THUNDER OR FOG.

PAZ002>004-007>009-013>016-020>023-029>032-182300-
WESTERN PENNSYLVANIA

CITY           SKY/WX    TMP DP  RH WIND       PRES   REMARKS
ERIE           MOSUNNY   51  36  56 W5        30.25R
MEADVILLE      NOT AVBL
FRANKLIN*      CLOUDY    61  34  36 W8        30.23S
NEW CASTLE     FAIR      64  34  32 NW9       30.22S
BEAVER COUNTY  CLOUDY    66  34  30 NW12G18   30.21S
BUTLER*        PTSUNNY   64  34  32 NW8       30.23R
PITTSBURGH INT CLOUDY    67  31  26 W8        30.19F
PITTSBURGH     PTSUNNY   68  28  22 W12       30.19F
INDIANA*       PTSUNNY   64  28  25 W6        30.21S
LATROBE        SUNNY     66  32  28 W16       30.21S
WASHINGTON CO* PTSUNNY   66  30  26 W8        30.22F
$$

PAZ004>006-010>012-017>019-024>028-033>037-041-042-045-046-049>053-182300-
CENTRAL PENNSYLVANIA

CITY           SKY/WX    TMP DP  RH WIND       PRES   REMARKS
BRADFORD       MOSUNNY   60  25  26 W7        30.18F
DUBOIS         PTSUNNY   64  27  24 SW9       30.19F
CLEARFIELD     PTSUNNY   61  32  33 S9        30.20F
JOHNSTOWN      PTSUNNY   57  32  38 SE10      30.20S
ALTOONA        PTSUNNY   57  35  43 S9        30.24S
STATE COLLEGE  SUNNY     59  32  36 S6        30.23S
WILLIAMSPORT   PTSUNNY   53  32  44 SE7       30.25F
SELINSGROVE    CLOUDY    54  32  43 SW7       30.28F
FT INDIANTOWN  CLOUDY    51  34  51 S8        30.30F
CAPITAL CITY   PTSUNNY   53  35  50 E7        30.29F
HARRISBURG     CLOUDY    54  34  46 SE8       30.29F
YORK           PTSUNNY   54  33  45 VRB5      30.29F
$$

PAZ038>040-043-044-047-048-054-055-060>062-067>071-182300-
EASTERN PENNSYLVANIA

CITY           SKY/WX    TMP DP  RH WIND       PRES   REMARKS
SCRANTON       PTSUNNY   52  29  41 S10G18    30.25F
MOUNT POCONO   CLOUDY    45  28  51 SW9       30.26F
ALLENTOWN      CLOUDY    53  30  41 SW3       30.30F
QUAKERTOWN*    PTSUNNY   50  32  50 S6        30.32F
READING        PTSUNNY   54  33  45 SW8       30.30F
LANCASTER      PTSUNNY   51  34  52 SE3       30.31F
COATESVILLE    NOT AVBL
POTTSTOWN      PTSUNNY   52  31  44 VRB5      30.33F
BLUE BELL      MOSUNNY   54  30  40 CALM      30.32F
DOYLESTOWN     PTSUNNY   49  30  48 S5        30.31F
WILLOW GROVE   NOT AVBL
NORTH PHILA    PTSUNNY   54  29  38 SW5       30.35F
PHILADELPHIA   PTSUNNY   55  30  38 CALM      30.34F
$$



USA.gov is the U.S. government's official web portal to all federal, state and local government web resources and services.